Time,TemperatureF,DewpointF,PressureIn,WindDirection,WindDirectionDegrees,WindSpeedMPH,WindSpeedGustMPH,Humidity,HourlyPrecipIn,Conditions,Clouds,dailyrainin,SoftwareType,DateUTC
2013-07-22 00:12:00,72.5,66.7,29.65,SE,135,2.2,-999.0,82,-99.99,,,0.00,Acu-Link.com,2013-07-22 05:12:00,
2013-07-22 00:28:00,71.8,66.7,29.65,South,180,2.2,-999.0,84,-99.99,,,0.00,Acu-Link.com,2013-07-22 05:28:00,
2013-07-22 00:43:00,71.2,66.5,29.64,SSE,157,1.7,-999.0,85,-99.99,,,0.00,Acu-Link.com,2013-07-22 05:43:00,
2013-07-22 00:58:00,72.0,67.2,29.64,WSW,247,2.7,-999.0,85,-99.99,,,0.00,Acu-Link.com,2013-07-22 05:58:00,
2013-07-22 01:13:00,72.7,67.2,29.63,SW,225,3.7,-999.0,83,-99.99,,,0.00,Acu-Link.com,2013-07-22 06:13:00,
2013-07-22 01:28:00,73.0,67.2,29.64,SSW,202,5.3,-999.0,82,-99.99,,,0.00,Acu-Link.com,2013-07-22 06:28:00,
2013-07-22 01:43:00,73.2,67.4,29.63,SW,225,2.7,-999.0,82,-99.99,,,0.00,Acu-Link.com,2013-07-22 06:43:00,
2013-07-22 01:58:00,72.9,67.1,29.63,SW,225,3.7,-999.0,82,-99.99,,,0.00,Acu-Link.com,2013-07-22 06:58:00,
2013-07-22 02:14:00,72.1,66.6,29.62,SW,225,0.0,-999.0,83,-99.99,,,0.00,Acu-Link.com,2013-07-22 07:14:00,
2013-07-22 02:29:00,70.5,65.8,29.62,ESE,112,3.7,-999.0,85,-99.99,,,0.00,Acu-Link.com,2013-07-22 07:29:00,
2013-07-22 02:44:00,70.0,65.9,29.62,South,180,1.7,-999.0,87,-99.99,,,0.00,Acu-Link.com,2013-07-22 07:44:00,
2013-07-22 02:59:00,69.4,65.7,29.61,SSE,157,2.2,-999.0,88,-99.99,,,0.00,Acu-Link.com,2013-07-22 07:59:00,
2013-07-22 03:17:00,69.3,65.9,29.62,SSE,157,0.0,-999.0,89,-99.99,,,0.00,Acu-Link.com,2013-07-22 08:17:00,
2013-07-22 03:32:00,69.1,65.7,29.62,WSW,247,0.0,-999.0,89,-99.99,,,0.00,Acu-Link.com,2013-07-22 08:32:00,
2013-07-22 03:48:00,69.1,66.0,29.61,SSW,202,2.2,-999.0,90,-99.99,,,0.00,Acu-Link.com,2013-07-22 08:48:00,
2013-07-22 04:03:00,68.9,65.8,29.61,South,180,0.0,-999.0,90,-99.99,,,0.00,Acu-Link.com,2013-07-22 09:03:00,
2013-07-22 04:18:00,68.7,65.6,29.61,South,180,2.7,-999.0,90,-99.99,,,0.00,Acu-Link.com,2013-07-22 09:18:00,
2013-07-22 04:33:00,68.9,65.8,29.60,SSW,202,4.2,-999.0,90,-99.99,,,0.00,Acu-Link.com,2013-07-22 09:33:00,
2013-07-22 04:48:00,69.3,66.2,29.60,WSW,247,4.2,-999.0,90,-99.99,,,0.00,Acu-Link.com,2013-07-22 09:48:00,
2013-07-22 05:03:00,68.9,65.8,29.60,SW,225,2.2,-999.0,90,-99.99,,,0.00,Acu-Link.com,2013-07-22 10:03:00,
2013-07-22 05:19:00,68.7,65.6,29.60,SW,225,3.2,-999.0,90,-99.99,,,0.00,Acu-Link.com,2013-07-22 10:19:00,
2013-07-22 05:34:00,69.1,66.4,29.60,WSW,247,6.3,-999.0,91,-99.99,,,0.00,Acu-Link.com,2013-07-22 10:34:00,
2013-07-22 05:49:00,69.1,66.4,29.61,NNE,22,3.2,-999.0,91,-99.99,,,0.00,Acu-Link.com,2013-07-22 10:49:00,
2013-07-22 06:04:00,68.4,65.7,29.59,ESE,112,1.7,-999.0,91,-99.99,,,0.00,Acu-Link.com,2013-07-22 11:04:00,
2013-07-22 06:20:00,68.5,66.1,29.60,South,180,0.0,-999.0,92,-99.99,,,0.00,Acu-Link.com,2013-07-22 11:20:00,
2013-07-22 06:35:00,69.1,66.7,29.59,SSE,157,2.2,-999.0,92,-99.99,,,0.00,Acu-Link.com,2013-07-22 11:35:00,
2013-07-22 06:50:00,70.0,66.6,29.60,SE,135,2.7,-999.0,89,-99.99,,,0.00,Acu-Link.com,2013-07-22 11:50:00,
2013-07-22 07:05:00,71.6,67.2,29.62,ESE,112,2.2,-999.0,86,-99.99,,,0.00,Acu-Link.com,2013-07-22 12:05:00,
2013-07-22 07:20:00,73.6,68.5,29.61,East,90,1.7,-999.0,84,-99.99,,,0.00,Acu-Link.com,2013-07-22 12:20:00,
2013-07-22 07:35:00,76.1,69.1,29.62,SE,135,2.2,-999.0,79,-99.99,,,0.00,Acu-Link.com,2013-07-22 12:35:00,
2013-07-22 07:51:00,75.2,69.0,29.62,SSW,202,4.2,-999.0,81,-99.99,,,0.00,Acu-Link.com,2013-07-22 12:51:00,
2013-07-22 08:06:00,75.6,69.7,29.62,SSW,202,6.8,-999.0,82,-99.99,,,0.00,Acu-Link.com,2013-07-22 13:06:00,
2013-07-22 08:21:00,77.2,70.9,29.64,SW,225,4.7,-999.0,81,-99.99,,,0.00,Acu-Link.com,2013-07-22 13:21:00,
2013-07-22 08:37:00,78.3,71.6,29.62,South,180,9.4,-999.0,80,-99.99,,,0.00,Acu-Link.com,2013-07-22 13:37:00,
2013-07-22 08:52:00,79.7,71.8,29.63,SSW,202,6.8,-999.0,77,-99.99,,,0.00,Acu-Link.com,2013-07-22 13:52:00,
2013-07-22 09:07:00,79.7,71.8,29.63,SSW,202,5.8,-999.0,77,-99.99,,,0.00,Acu-Link.com,2013-07-22 14:07:00,
2013-07-22 09:22:00,80.2,71.9,29.62,WSW,247,5.3,-999.0,76,-99.99,,,0.00,Acu-Link.com,2013-07-22 14:22:00,
2013-07-22 09:37:00,81.3,72.6,29.62,SSW,202,4.7,-999.0,75,-99.99,,,0.00,Acu-Link.com,2013-07-22 14:37:00,
2013-07-22 09:53:00,81.3,72.2,29.61,SSW,202,8.3,-999.0,74,-99.99,,,0.00,Acu-Link.com,2013-07-22 14:53:00,
2013-07-22 10:08:00,83.7,72.9,29.61,WSW,247,4.7,-999.0,70,-99.99,,,0.00,Acu-Link.com,2013-07-22 15:08:00,
2013-07-22 10:23:00,83.1,72.3,29.61,SW,225,6.3,-999.0,70,-99.99,,,0.00,Acu-Link.com,2013-07-22 15:23:00,
2013-07-22 10:38:00,85.3,73.5,29.61,SW,225,7.8,-999.0,68,-99.99,,,0.00,Acu-Link.com,2013-07-22 15:38:00,
2013-07-22 11:09:00,86.9,73.2,29.61,SSW,202,7.3,-999.0,64,-99.99,,,0.00,Acu-Link.com,2013-07-22 16:09:00,
2013-07-22 11:24:00,88.2,73.5,29.60,SSW,202,8.9,-999.0,62,-99.99,,,0.00,Acu-Link.com,2013-07-22 16:24:00,
2013-07-22 11:39:00,88.3,73.6,29.60,SSW,202,8.3,-999.0,62,-99.99,,,0.00,Acu-Link.com,2013-07-22 16:39:00,
2013-07-22 11:54:00,87.6,73.9,29.60,South,180,7.8,-999.0,64,-99.99,,,0.00,Acu-Link.com,2013-07-22 16:54:00,
2013-07-22 12:10:00,88.0,73.3,29.60,South,180,5.8,-999.0,62,-99.99,,,0.00,Acu-Link.com,2013-07-22 17:10:00,
2013-07-22 12:25:00,88.7,73.5,29.60,SSE,157,4.7,-999.0,61,-99.99,,,0.00,Acu-Link.com,2013-07-22 17:25:00,
2013-07-22 12:40:00,90.3,74.0,29.59,ESE,112,4.7,-999.0,59,-99.99,,,0.00,Acu-Link.com,2013-07-22 17:40:00,
2013-07-22 12:56:00,90.3,73.5,29.59,ESE,112,5.8,-999.0,58,-99.99,,,0.00,Acu-Link.com,2013-07-22 17:56:00,
2013-07-22 13:11:00,90.9,74.6,29.60,ESE,112,5.3,-999.0,59,-99.99,,,0.00,Acu-Link.com,2013-07-22 18:11:00,
2013-07-22 13:26:00,91.4,72.9,29.60,SW,225,6.3,-999.0,55,-99.99,,,0.00,Acu-Link.com,2013-07-22 18:26:00,
2013-07-22 13:41:00,91.9,72.8,29.60,SSW,202,5.8,-999.0,54,-99.99,,,0.00,Acu-Link.com,2013-07-22 18:41:00,
2013-07-22 13:56:00,92.3,74.3,29.61,South,180,6.8,-999.0,56,-99.99,,,0.00,Acu-Link.com,2013-07-22 18:56:00,
2013-07-22 14:12:00,91.8,73.3,29.60,East,90,4.7,-999.0,55,-99.99,,,0.00,Acu-Link.com,2013-07-22 19:12:00,
2013-07-22 14:27:00,92.3,73.8,29.61,ESE,112,6.8,-999.0,55,-99.99,,,0.00,Acu-Link.com,2013-07-22 19:27:00,
2013-07-22 14:57:00,94.3,73.3,29.61,ESE,112,10.4,-999.0,51,-99.99,,,0.00,Acu-Link.com,2013-07-22 19:57:00,
2013-07-22 15:13:00,93.6,74.4,29.60,South,180,6.3,-999.0,54,-99.99,,,0.00,Acu-Link.com,2013-07-22 20:13:00,
2013-07-22 15:28:00,92.8,73.7,29.59,SSE,157,6.8,-999.0,54,-99.99,,,0.00,Acu-Link.com,2013-07-22 20:28:00,
2013-07-22 15:43:00,93.2,73.5,29.60,SSW,202,4.7,-999.0,53,-99.99,,,0.00,Acu-Link.com,2013-07-22 20:43:00,
2013-07-22 15:58:00,94.8,72.6,29.59,SSW,202,11.9,-999.0,49,-99.99,,,0.00,Acu-Link.com,2013-07-22 20:58:00,
2013-07-22 16:13:00,94.8,73.2,29.59,South,180,5.3,-999.0,50,-99.99,,,0.00,Acu-Link.com,2013-07-22 21:13:00,
2013-07-22 16:29:00,94.5,72.9,29.59,SW,225,7.8,-999.0,50,-99.99,,,0.00,Acu-Link.com,2013-07-22 21:29:00,
2013-07-22 16:44:00,95.2,73.0,29.58,South,180,7.8,-999.0,49,-99.99,,,0.00,Acu-Link.com,2013-07-22 21:44:00,
2013-07-22 16:59:00,95.7,72.8,29.57,SSW,202,6.8,-999.0,48,-99.99,,,0.00,Acu-Link.com,2013-07-22 21:59:00,
2013-07-22 17:14:00,97.0,72.1,29.57,SW,225,7.8,-999.0,45,-99.99,,,0.00,Acu-Link.com,2013-07-22 22:14:00,
2013-07-22 17:30:00,96.8,69.9,29.57,SSW,202,9.4,-999.0,42,-99.99,,,0.00,Acu-Link.com,2013-07-22 22:30:00,
2013-07-22 17:45:00,96.6,72.4,29.57,SSE,157,3.2,-999.0,46,-99.99,,,0.00,Acu-Link.com,2013-07-22 22:45:00,
2013-07-22 18:00:00,96.3,72.1,29.56,South,180,4.2,-999.0,46,-99.99,,,0.00,Acu-Link.com,2013-07-22 23:00:00,
2013-07-22 18:15:00,95.7,72.2,29.56,SSW,202,9.4,-999.0,47,-99.99,,,0.00,Acu-Link.com,2013-07-22 23:15:00,
2013-07-22 18:30:00,96.4,71.5,29.56,SW,225,9.9,-999.0,45,-99.99,,,0.00,Acu-Link.com,2013-07-22 23:30:00,
2013-07-22 18:45:00,96.4,70.9,29.57,SSW,202,5.3,-999.0,44,-99.99,,,0.00,Acu-Link.com,2013-07-22 23:45:00,
2013-07-22 19:00:00,96.1,71.3,29.57,West,270,4.2,-999.0,45,-99.99,,,0.00,Acu-Link.com,2013-07-23 00:00:00,
2013-07-22 19:16:00,96.8,70.6,29.58,West,270,3.2,-999.0,43,-99.99,,,0.00,Acu-Link.com,2013-07-23 00:16:00,
2013-07-22 19:31:00,93.2,71.2,29.55,SSW,202,8.3,-999.0,49,-99.99,,,0.00,Acu-Link.com,2013-07-23 00:31:00,
2013-07-22 19:46:00,91.8,69.9,29.56,South,180,5.3,-999.0,49,-99.99,,,0.00,Acu-Link.com,2013-07-23 00:46:00,
2013-07-22 20:02:00,90.5,69.9,29.56,SW,225,4.7,-999.0,51,-99.99,,,0.00,Acu-Link.com,2013-07-23 01:02:00,
2013-07-22 20:17:00,90.1,70.1,29.56,SW,225,2.7,-999.0,52,-99.99,,,0.00,Acu-Link.com,2013-07-23 01:17:00,
2013-07-22 20:32:00,88.5,69.7,29.56,SW,225,3.2,-999.0,54,-99.99,,,0.00,Acu-Link.com,2013-07-23 01:32:00,
2013-07-22 20:47:00,85.3,68.8,29.57,WNW,292,1.7,-999.0,58,-99.99,,,0.00,Acu-Link.com,2013-07-23 01:47:00,
2013-07-22 21:02:00,80.8,68.4,29.58,ENE,67,3.2,-999.0,66,-99.99,,,0.00,Acu-Link.com,2013-07-23 02:02:00,
2013-07-22 21:18:00,81.9,65.6,29.58,WSW,247,0.0,-999.0,58,-99.99,,,0.00,Acu-Link.com,2013-07-23 02:18:00,
2013-07-22 21:33:00,82.0,65.7,29.59,SSW,202,3.2,-999.0,58,-99.99,,,0.00,Acu-Link.com,2013-07-23 02:33:00,
2013-07-22 21:48:00,80.2,67.8,29.60,NW,315,4.7,-999.0,66,-99.99,,,0.00,Acu-Link.com,2013-07-23 02:48:00,
2013-07-22 22:04:00,79.5,65.3,29.61,SSW,202,2.2,-999.0,62,-99.99,,,0.00,Acu-Link.com,2013-07-23 03:04:00,
2013-07-22 22:19:00,79.0,67.5,29.62,WNW,292,2.7,-999.0,68,-99.99,,,0.00,Acu-Link.com,2013-07-23 03:19:00,
2013-07-22 22:34:00,78.3,66.4,29.63,WSW,247,2.2,-999.0,67,-99.99,,,0.00,Acu-Link.com,2013-07-23 03:34:00,
2013-07-22 22:49:00,78.3,66.8,29.64,West,270,5.8,-999.0,68,-99.99,,,0.00,Acu-Link.com,2013-07-23 03:49:00,
2013-07-22 23:04:00,78.6,67.1,29.65,NW,315,4.2,-999.0,68,-99.99,,,0.00,Acu-Link.com,2013-07-23 04:04:00,
2013-07-22 23:19:00,78.8,66.9,29.65,NNE,22,4.7,-999.0,67,-99.99,,,0.00,Acu-Link.com,2013-07-23 04:19:00,
2013-07-22 23:35:00,78.6,67.1,29.65,NNE,22,5.3,-999.0,68,-99.99,,,0.00,Acu-Link.com,2013-07-23 04:35:00,
2013-07-22 23:50:00,78.4,66.5,29.66,NNE,22,7.3,-999.0,67,-99.99,,,0.00,Acu-Link.com,2013-07-23 04:50:00,